Simultaneous Nadir Overpasses (SNOs) Predictions

Prediction of SNOs between GOES-14 and AQUA Satellite Orbit:

Table of predicted SNOs for the next 14.0 days since TLE Epoch: 2/13/2025
Index Date Time (GOES-14) GOES-14 Lat,Lon AQUA Lat,Lon Distance(km) Time Diff (sec)
1 02/15/2025 09:38:15 0.44,-107.74 0.18,-106.49 141.51 80
2 02/15/2025 21:55:09 -0.44,-107.70 -1.17,-111.23 400.35 80
3 02/17/2025 21:38:28 -0.44,-107.68 -0.21,-106.48 135.18 80
4 02/18/2025 09:55:13 0.44,-107.70 1.16,-111.19 396.04 80
5 02/20/2025 09:38:31 0.44,-107.67 0.16,-106.44 139.89 80
6 02/20/2025 21:55:23 -0.44,-107.63 -1.22,-111.16 401.73 80
7 02/22/2025 21:38:40 -0.45,-107.60 -0.19,-106.41 134.50 80
8 02/23/2025 09:55:22 0.44,-107.61 1.22,-111.10 396.75 80
9 02/25/2025 09:38:37 0.46,-107.58 0.21,-106.34 140.05 80
10 02/25/2025 21:55:29 -0.45,-107.54 -1.21,-111.06 401.21 80
